Showing default

HULIANWANG DIGUI-02, 62324

Orbit data source: Space-Track

HULIANWANG DIGUI-02, 62324 is a payload satellite owned by Zhongguo Xingwang (CN) in LEO that was launched on Mon, 16 Dec 2024 UTC via a CHANG ZHENG 5B/YZ-2 launch vehicle from the Wenchang Satellite Launch Center (WSC). Payload-class satellites include a variety of spacecraft equipped with specific instruments for various scientific and technological missions. These include communications satellites like Starlink; space stations such as the ISS; scientific satellites like the Hubble; Earth observation satellites from companies like Planet Labs, Umbra, and HawkEye 360; GPS; miniature CubeSats for education and research; and military/defense satellites.

Loading next visibility...
Identifier
62324, 2024-240B
Orbit
LEO
Country
Flag of CNCN / PRC
Related business
Manufacturer
CAST?
Mission
Operational Civil Communications
Bus & Motor
XINGWANG CL, Unknown motor
Mass
~800 kg wet, ~800 kg dry
Launch date (UTC)
2024-12-16 (1 year ago)
Launch vehicle
CHANG ZHENG 5B/YZ-2
Launch site
Wenchang Satellite Launch Center (WSC)
Object type
Payload
Rocket body
Debris
Shape & HBR
Box + 2 Pan, 5.0 m
Radar Cross Section
5.935 m², Large (>1 m²)

Expand to show TLE details & history
Last TLE update: 3 hours ago

TLE from 3 hours ago
0 HULIANWANG DIGUI-02
1 62324U 24240B   26126.52973247  .00000043  00000-0  65850-4 0  9990
2 62324  86.5053 357.4419 0001749  73.4628 286.6698 13.24408237 67136
Epoch: 2026-05-06T12:42Z
TLE epoch observation values (Epoch: 2026-05-06T12:42:48.885Z)
Latitude
-0.00002°
Longitude
-57.6507°
Altitude
1,170.445 km
Speed
7.268 km/s
True Right ascension
23h 49m 46s
True Declination
0° 00' 00"
Sunlit
Object was in daylight at epoch
Visualization orbit readout
Latitude
Unknown
Longitude
Unknown
Altitude
Unknown
Speed
Unknown
Apparent Right ascension
Unknown
Apparent Declination
Unknown
Sunlit
N/A
Visualization observer readout
Local Sidereal Time
23:45:39
Azimuth
Unknown
Elevation
Unknown
Doppler factor
Unknown
Orbital elements
Apogee altitude
1,166.368 km
Perigee altitude
1,163.729 km
Semi-major axis
7,543.186 km
Eccentricity
0.00017
Inclination
86.5053°
RAAN
357.4419°
Arg. of periapsis
73.4628°
True anomaly
286.6506°
Mean anomaly
286.6698°
Eccentric anomaly
286.6602°
Mean motion
3.31292 °/min
Orbital period
108.67 mins
BSTAR
0.00006585
Loading maneuver chart data...
Computing Atmospheric mass density...
Loading historical data...
Loading historical data...
Loading historical data...
Loading historical data...
Loading historical data...
Loading historical data...
Loading historical data...

Documentation

Showing up to 5 results
|